CZ-6A DEB, 54446

Orbit data source: Space-Track

CZ-6A DEB, 54446 is space debris in SSO originally from a launch on Fri, 11 Nov 2022 UTC launched from the Taiyaun Space Center, China (TSC). Debris objects in space refer to the collection of defunct objects orbiting the Earth. Examples of debris include non-operational satellites, rocket bodies, and fragments generated from explosions, collisions, or faulty payload assembly.

Loading next visibility...
Identifier
54446, 2022-151FW
Orbit
SSO
Country
Flag of CNCN / PRC
Related business
Manufacturer
SAST
Mission
Spacecraft
Bus & Motor
Unknown
Mass
Unknown
Launch date (UTC)
2022-11-11 (4 years ago)
Launch vehicle
Unknown
Launch site
Taiyaun Space Center, China (TSC)
Object type
Payload
Rocket body
Debris
Shape & HBR
Unknown shape, 0.1 m
Radar Cross Section
Medium (>0.1 m² and <1 m²)

Expand to show TLE details & history
Last TLE update: 2 days ago

TLE from 2 days ago
0 CZ-6A DEB
1 54446U 22151FW  26171.25345414  .00001588  00000-0  13164-2 0  9998
2 54446  98.8359  99.9741 0205743 156.8035 204.2571 13.80820465180743
Epoch: 2026-06-20T06:04Z
TLE epoch observation values (Epoch: 2026-06-20T06:04:58.437Z)
Latitude
0.00002°
Longitude
100.25988°
Altitude
1,102.039 km
Speed
7.232 km/s
True Right ascension
06h 39m 53s
True Declination
0° 00' 00"
Sunlit
Object was in daylight at epoch
Visualization orbit readout
Latitude
Unknown
Longitude
Unknown
Altitude
Unknown
Speed
Unknown
Apparent Right ascension
Unknown
Apparent Declination
Unknown
Sunlit
N/A
Visualization observer readout
Local Sidereal Time
21:32:26
Azimuth
Unknown
Elevation
Unknown
Doppler factor
Unknown
Orbital elements
Apogee altitude
1,109.133 km
Perigee altitude
807.254 km
Semi-major axis
7,336.331 km
Eccentricity
0.02057
Inclination
98.8359°
RAAN
99.9741°
Arg. of periapsis
156.8035°
True anomaly
203.31076°
Mean anomaly
204.2571°
Eccentric anomaly
203.78174°
Mean motion
3.45402 °/min
Orbital period
104.23 mins
BSTAR
0.0013164
Loading maneuver chart data...
Computing Atmospheric mass density...
Loading historical data...
Loading historical data...
Loading historical data...
Loading historical data...
Loading historical data...
Loading historical data...
Loading historical data...

Documentation

Showing up to 5 results
|